Location: Harbor Side
(32.6101°N, 117.0814°W)
Time: 07:44:04
(UTC+00:00)

SL-4 R/B - Pass Details

Date: 21 April 2021
Orbit: 427 x 663 km, 51.6° (Epoch: 12 May)

Event Time Altitude Azimuth Distance (km) Brightness Sun altitude
Rises 12:16:49 0° 305° (NW) 2,994 5.5 -11.7°
Reaches altitude 10° 12:19:21 10° 297° (WNW) 2,072 4.6 -11.2°
Maximum altitude 12:23:42 35° 232° (SW) 1,039 2.9 -10.4°
Drops below altitude 10° 12:27:54 10° 166° (SSE) 1,992 4.8 -9.6°
Sets 12:30:17 0° 157° (SSE) 2,861 5.7 -9.1°
